User: anonymous   Login
Location: Evergreen Manor
(41.4083°N, 81.4939°W)
Time: 14:26:23
(UTC+00:00)
Language:

Meteor 1-25 Rocket - Orbit

View from above orbital plane
View from above orbital plane
View from above satellite
View from above satellite

Ground track
Ground track

The orbit data is extracted from the following two-line orbital elements,

1  8846U 76043B   20056.37585903 +.00000155 +00000-0 +82044-4 0  9992
2  8846 081.2180 075.1550 0038507 119.0899 241.4135 14.08570505249494
Epoch (UTC): 25 February 2020 09:01:14
Eccentricity: 0.0038507
inclination: 81.2180°
perigee height: 836 km
apogee height: 892 km
right ascension of ascending node: 75.1550°
argument of perigee: 119.0899°
revolutions per day: 14.08570505
mean anomaly at epoch: 241.4135°
orbit number at epoch: 24949

The dashed part of the orbit path shows where the satellite is in the earth's shadow,  

DLR